Location: Arborea
(39.7744°N, 8.5819°E)
Time: 22:34:23
(UTC+00:00)

CUTE 1.7 + AOD 2 - Visible Passes

Search period start: 27 May 2024 00:00
Search period end: 06 June 2024 00:00
Orbit: 569 x 586 km, 97.8° (Epoch: 26 May)

Date Brightness Start Highest point End Pass type
(mag) Time Alt. Az. Time Alt. Az. Time Alt. Az.
27 May ? 02:43:35 10° NNE 02:47:38 54° E 02:51:39 10° S visible
28 May ? 02:47:44 10° NNE 02:51:50 61° E 02:55:53 10° S visible
29 May ? 02:51:54 10° NNE 02:56:01 69° ESE 03:00:06 10° S visible
30 May ? 02:56:03 10° NNE 03:00:11 78° ESE 03:04:18 10° S visible
31 May ? 03:00:13 10° NNE 03:04:21 87° ESE 03:08:28 10° SSW visible
01 Jun ? 03:04:22 10° N 03:08:29 83° WNW 03:12:36 10° SSW visible
02 Jun ? 03:08:30 10° N 03:12:38 74° WNW 03:16:44 10° SSW visible
03 Jun ? 03:12:39 10° N 03:16:45 66° WNW 03:20:50 10° SSW visible
04 Jun ? 01:44:34 10° E 01:45:15 10° E 01:45:56 10° E visible
04 Jun ? 03:16:47 10° N 03:20:51 59° WNW 03:24:54 10° SSW visible
05 Jun ? 01:47:54 10° ENE 01:49:24 12° E 01:50:53 10° ESE visible
05 Jun ? 03:20:56 10° N 03:24:57 52° WNW 03:28:58 10° SSW visible
